• In Deutschland
  • Länderverzeichnis
  • Für 7 Tage
  • Wassertemperatur
  • Satellitenkarten
  • Wetterkarte
  • Widgets
  • user-avatar
    Anmelden

    Stündliche Wetter Soure

    Heute, 21 Oktober, Sonntag

    Zeit Temperatur Niederschläge Wind Luftdruck Luftfeuchtigkeit
    00:00 +28°C° 0 mm 4 m/S 755 mmHg 80%
    01:00 +28°C° 0 mm 3 m/S 755 mmHg 81%
    02:00 +28°C° 0 mm 3 m/S 755 mmHg 82%
    03:00 +28°C° 0 mm 3 m/S 755 mmHg 83%
    04:00 +28°C° 0 mm 3 m/S 755 mmHg 84%
    05:00 +27°C° 0 mm 3 m/S 755 mmHg 85%
    06:00 +27°C° 0 mm 3 m/S 755 mmHg 85%
    07:00 +29°C° 0 mm 3 m/S 756 mmHg 79%
    08:00 +30°C° 0 mm 3 m/S 756 mmHg 72%
    09:00 +33°C° 0 mm 4 m/S 757 mmHg 65%
    10:00 +34°C° 0 mm 4 m/S 756 mmHg 60%
    11:00 +35°C° 0 mm 4 m/S 756 mmHg 54%
    12:00 +36°C° 0 mm 4 m/S 756 mmHg 49%
    13:00 +36°C° 0 mm 4 m/S 755 mmHg 49%
    14:00 +36°C° 0 mm 4 m/S 755 mmHg 50%
    15:00 +36°C° 0 mm 5 m/S 754 mmHg 51%
    16:00 +34°C° 0 mm 5 m/S 754 mmHg 57%
    17:00 +33°C° 0 mm 5 m/S 754 mmHg 63%
    18:00 +30°C° 0 mm 5 m/S 754 mmHg 69%
    19:00 +30°C° 0 mm 5 m/S 755 mmHg 72%
    20:00 +29°C° 0 mm 5 m/S 755 mmHg 74%
    21:00 +29°C° 0 mm 4 m/S 756 mmHg 77%
    22:00 +29°C° 0 mm 4 m/S 756 mmHg 78%
    23:00 +29°C° 0 mm 4 m/S 756 mmHg 80%

    Morgen, 22 Oktober, Montag

    Zeit Temperatur Niederschläge Wind Luftdruck Luftfeuchtigkeit
    00:00 +28°C° 0 mm 4 m/S 756 mmHg 81%
    01:00 +28°C° 0 mm 4 m/S 755 mmHg 82%
    02:00 +28°C° 0 mm 4 m/S 755 mmHg 82%
    03:00 +28°C° 0 mm 4 m/S 754 mmHg 83%
    04:00 +28°C° 0 mm 4 m/S 755 mmHg 83%
    05:00 +28°C° 0 mm 4 m/S 755 mmHg 84%
    06:00 +28°C° 0 mm 4 m/S 755 mmHg 84%
    07:00 +29°C° 0 mm 4 m/S 756 mmHg 78%
    08:00 +30°C° 0 mm 4 m/S 756 mmHg 71%
    09:00 +33°C° 0 mm 4 m/S 757 mmHg 64%
    10:00 +34°C° 0 mm 5 m/S 757 mmHg 60%
    11:00 +35°C° 0 mm 5 m/S 756 mmHg 55%
    12:00 +36°C° 0 mm 5 m/S 756 mmHg 50%
    13:00 +36°C° 0 mm 5 m/S 755 mmHg 52%
    14:00 +35°C° 0 mm 5 m/S 755 mmHg 54%
    15:00 +35°C° 0 mm 5 m/S 754 mmHg 55%
    16:00 +34°C° 0 mm 5 m/S 754 mmHg 60%
    17:00 +33°C° 0 mm 5 m/S 754 mmHg 64%
    18:00 +30°C° 0 mm 5 m/S 754 mmHg 68%
    19:00 +30°C° 0 mm 5 m/S 755 mmHg 70%
    20:00 +30°C° 0 mm 5 m/S 756 mmHg 71%
    21:00 +29°C° 0 mm 5 m/S 756 mmHg 73%
    22:00 +29°C° 0 mm 4 m/S 756 mmHg 74%
    23:00 +29°C° 0 mm 4 m/S 756 mmHg 75%

    übermorgen, 23 Oktober, Dienstag

    Zeit Temperatur Niederschläge Wind Luftdruck Luftfeuchtigkeit
    00:00 +29°C° 0 mm 4 m/S 756 mmHg 76%
    01:00 +28°C° 0 mm 4 m/S 756 mmHg 78%
    02:00 +28°C° 0 mm 3 m/S 755 mmHg 79%
    03:00 +28°C° 0 mm 3 m/S 755 mmHg 80%
    04:00 +28°C° 0 mm 4 m/S 755 mmHg 80%
    05:00 +28°C° 0 mm 4 m/S 755 mmHg 81%
    06:00 +28°C° 0 mm 4 m/S 755 mmHg 81%
    07:00 +29°C° 0 mm 4 m/S 756 mmHg 75%
    08:00 +32°C° 0 mm 4 m/S 757 mmHg 68%
    09:00 +33°C° 0 mm 5 m/S 757 mmHg 61%
    10:00 +34°C° 0 mm 5 m/S 757 mmHg 57%
    11:00 +35°C° 0 mm 5 m/S 757 mmHg 54%
    12:00 +36°C° 0 mm 5 m/S 756 mmHg 50%
    13:00 +36°C° 0 mm 5 m/S 756 mmHg 51%
    14:00 +36°C° 0 mm 5 m/S 755 mmHg 52%
    15:00 +35°C° 0 mm 5 m/S 754 mmHg 53%
    16:00 +34°C° 0.3 mm 5 m/S 754 mmHg 58%
    17:00 +33°C° 0.3 mm 5 m/S 755 mmHg 64%
    18:00 +32°C° 0.3 mm 5 m/S 755 mmHg 70%
    19:00 +30°C° 0.3 mm 5 m/S 755 mmHg 72%
    20:00 +30°C° 0.3 mm 5 m/S 756 mmHg 73%
    21:00 +30°C° 0.3 mm 5 m/S 757 mmHg 75%
    22:00 +29°C° 0.1 mm 5 m/S 757 mmHg 77%
    23:00 +29°C° 0.1 mm 5 m/S 757 mmHg 78%

    24 Oktober, Mittwoch

    Zeit Temperatur Niederschläge Wind Luftdruck Luftfeuchtigkeit
    00:00 +29°C° 0.1 mm 4 m/S 757 mmHg 79%
    01:00 +29°C° 0 mm 4 m/S 756 mmHg 80%
    02:00 +28°C° 0 mm 4 m/S 756 mmHg 81%
    03:00 +28°C° 0 mm 4 m/S 755 mmHg 82%
    04:00 +28°C° 0 mm 4 m/S 755 mmHg 82%
    05:00 +28°C° 0 mm 4 m/S 756 mmHg 82%
    06:00 +28°C° 0 mm 4 m/S 756 mmHg 82%
    07:00 +29°C° 0 mm 4 m/S 757 mmHg 76%
    08:00 +30°C° 0 mm 5 m/S 757 mmHg 70%
    09:00 +32°C° 0 mm 5 m/S 758 mmHg 64%
    10:00 +33°C° 0 mm 5 m/S 757 mmHg 61%
    11:00 +34°C° 0 mm 5 m/S 757 mmHg 58%
    12:00 +35°C° 0 mm 4 m/S 757 mmHg 55%
    13:00 +35°C° 0 mm 5 m/S 756 mmHg 54%
    14:00 +35°C° 0 mm 5 m/S 755 mmHg 54%
    15:00 +35°C° 0 mm 5 m/S 754 mmHg 53%
    16:00 +34°C° 0 mm 5 m/S 755 mmHg 58%
    17:00 +33°C° 0 mm 5 m/S 755 mmHg 63%
    18:00 +32°C° 0 mm 5 m/S 755 mmHg 69%
    19:00 +30°C° 0 mm 5 m/S 755 mmHg 71%
    20:00 +30°C° 0 mm 5 m/S 756 mmHg 74%
    21:00 +29°C° 0 mm 5 m/S 756 mmHg 76%
    22:00 +29°C° 0 mm 4 m/S 756 mmHg 77%
    23:00 +29°C° 0 mm 4 m/S 756 mmHg 78%

    25 Oktober, Donnerstag

    Zeit Temperatur Niederschläge Wind Luftdruck Luftfeuchtigkeit
    00:00 +29°C° 0 mm 4 m/S 756 mmHg 79%
    01:00 +29°C° 0 mm 4 m/S 755 mmHg 79%
    02:00 +29°C° 0 mm 4 m/S 755 mmHg 80%
    03:00 +28°C° 0 mm 4 m/S 754 mmHg 81%
    04:00 +28°C° 0 mm 4 m/S 755 mmHg 81%
    05:00 +28°C° 0 mm 4 m/S 755 mmHg 82%
    06:00 +28°C° 0 mm 4 m/S 755 mmHg 82%
    07:00 +29°C° 0 mm 4 m/S 756 mmHg 76%
    08:00 +32°C° 0 mm 4 m/S 756 mmHg 70%
    09:00 +33°C° 0 mm 5 m/S 757 mmHg 64%
    10:00 +34°C° 0 mm 5 m/S 757 mmHg 59%
    11:00 +35°C° 0 mm 4 m/S 756 mmHg 54%
    12:00 +36°C° 0 mm 4 m/S 756 mmHg 49%
    13:00 +36°C° 0 mm 5 m/S 755 mmHg 50%
    14:00 +36°C° 0 mm 5 m/S 755 mmHg 51%
    15:00 +36°C° 0 mm 5 m/S 754 mmHg 51%
    16:00 +34°C° 0 mm 5 m/S 754 mmHg 56%
    17:00 +33°C° 0 mm 5 m/S 755 mmHg 60%
    18:00 +32°C° 0 mm 5 m/S 755 mmHg 65%
    19:00 +30°C° 0 mm 5 m/S 755 mmHg 68%
    20:00 +30°C° 0 mm 5 m/S 756 mmHg 70%
    21:00 +29°C° 0 mm 5 m/S 756 mmHg 73%
    22:00 +29°C° 0 mm 5 m/S 756 mmHg 75%
    23:00 +29°C° 0 mm 4 m/S 756 mmHg 76%

    26 Oktober, Freitag

    Zeit Temperatur Niederschläge Wind Luftdruck Luftfeuchtigkeit
    00:00 +29°C° 0 mm 4 m/S 755 mmHg 78%
    01:00 +28°C° 0 mm 4 m/S 755 mmHg 80%
    02:00 +28°C° 0 mm 4 m/S 755 mmHg 81%
    03:00 +28°C° 0 mm 3 m/S 754 mmHg 83%
    04:00 +28°C° 0 mm 3 m/S 755 mmHg 84%
    05:00 +28°C° 0 mm 3 m/S 755 mmHg 84%
    06:00 +28°C° 0 mm 3 m/S 756 mmHg 85%
    07:00 +29°C° 0 mm 3 m/S 756 mmHg 80%
    08:00 +30°C° 0 mm 4 m/S 757 mmHg 74%
    09:00 +32°C° 0 mm 4 m/S 757 mmHg 68%
    10:00 +33°C° 0 mm 4 m/S 757 mmHg 63%
    11:00 +34°C° 0 mm 4 m/S 757 mmHg 57%
    12:00 +36°C° 0 mm 4 m/S 756 mmHg 52%
    13:00 +36°C° 0 mm 4 m/S 756 mmHg 52%
    14:00 +35°C° 0 mm 4 m/S 755 mmHg 53%
    15:00 +35°C° 0 mm 4 m/S 754 mmHg 54%
    16:00 +34°C° 0.2 mm 4 m/S 755 mmHg 59%
    17:00 +33°C° 0.2 mm 4 m/S 755 mmHg 64%
    18:00 +32°C° 0.2 mm 4 m/S 755 mmHg 69%
    19:00 +30°C° 0 mm 4 m/S 756 mmHg 71%
    20:00 +30°C° 0 mm 4 m/S 756 mmHg 74%
    21:00 +29°C° 0 mm 4 m/S 757 mmHg 77%
    22:00 +29°C° 0 mm 4 m/S 757 mmHg 78%
    23:00 +29°C° 0 mm 4 m/S 757 mmHg 79%
    Mehr zeigen